TimeEST,TemperatureF,Dew PointF,Humidity,Sea Level PressureIn,VisibilityMPH,Wind Direction,Wind SpeedMPH,Gust SpeedMPH,PrecipitationIn,Events,Conditions,WindDirDegrees,DateUTC
12:35 AM,37.4,25.7,63,30.23,10.0,NNW,4.6,-,N/A,,Clear,340,2013-01-07 05:35:00
12:55 AM,36.5,25.9,65,30.21,10.0,NNW,3.5,-,N/A,,Clear,340,2013-01-07 05:55:00
1:15 AM,35.2,25.9,69,30.21,10.0,NNW,5.8,-,N/A,,Clear,330,2013-01-07 06:15:00
1:35 AM,34.3,25.9,71,30.20,10.0,NW,5.8,-,N/A,,Clear,310,2013-01-07 06:35:00
1:55 AM,34.7,25.7,70,30.21,10.0,West,5.8,-,N/A,,Clear,280,2013-01-07 06:55:00
2:15 AM,35.6,25.7,67,30.22,10.0,WNW,5.8,-,N/A,,Clear,300,2013-01-07 07:15:00
2:35 AM,34.5,25.7,70,30.23,10.0,WNW,5.8,-,N/A,,Clear,300,2013-01-07 07:35:00
2:55 AM,35.1,25.5,68,30.22,10.0,NW,3.5,-,N/A,,Clear,310,2013-01-07 07:55:00
3:15 AM,33.4,24.8,71,30.23,10.0,WNW,3.5,-,N/A,,Clear,300,2013-01-07 08:15:00
3:35 AM,28.8,24.3,83,30.24,10.0,SSW,3.5,-,N/A,,Clear,200,2013-01-07 08:35:00
3:55 AM,27.9,24.1,86,30.25,10.0,SW,3.5,-,N/A,,Clear,230,2013-01-07 08:55:00
4:15 AM,26.6,23.0,86,30.26,10.0,Calm,Calm,-,N/A,,Clear,0,2013-01-07 09:15:00
4:35 AM,26.6,23.7,89,30.27,10.0,Calm,Calm,-,N/A,,Clear,0,2013-01-07 09:35:00
4:55 AM,24.8,21.9,89,30.28,10.0,Calm,Calm,-,N/A,,Clear,0,2013-01-07 09:55:00
5:15 AM,24.4,21.7,89,30.29,10.0,Calm,Calm,-,N/A,,Clear,0,2013-01-07 10:15:00
5:35 AM,25.0,22.6,91,30.29,10.0,Calm,Calm,-,N/A,,Clear,0,2013-01-07 10:35:00
5:55 AM,22.1,19.4,89,30.31,10.0,Calm,Calm,-,N/A,,Clear,0,2013-01-07 10:55:00
6:15 AM,22.6,20.5,91,30.32,10.0,Calm,Calm,-,N/A,,Clear,0,2013-01-07 11:15:00
6:35 AM,22.1,19.9,91,30.33,10.0,Calm,Calm,-,N/A,,Clear,0,2013-01-07 11:35:00
6:55 AM,21.2,18.9,91,30.34,10.0,Calm,Calm,-,N/A,,Clear,0,2013-01-07 11:55:00
7:35 AM,20.1,17.8,91,30.34,10.0,Calm,Calm,-,N/A,,Clear,0,2013-01-07 12:35:00
7:55 AM,20.3,18.3,92,30.34,10.0,Calm,Calm,-,N/A,,Clear,0,2013-01-07 12:55:00
8:15 AM,21.2,19.0,91,30.35,10.0,Calm,Calm,-,N/A,,Clear,0,2013-01-07 13:15:00
8:35 AM,23.0,20.8,91,30.36,10.0,Calm,Calm,-,N/A,,Clear,0,2013-01-07 13:35:00
8:55 AM,25.7,23.5,92,30.37,10.0,Calm,Calm,-,N/A,,Clear,0,2013-01-07 13:55:00
9:15 AM,27.9,25.2,90,30.37,10.0,Calm,Calm,-,N/A,,Clear,0,2013-01-07 14:15:00
9:35 AM,31.8,27.0,82,30.37,10.0,Calm,Calm,-,N/A,,Clear,0,2013-01-07 14:35:00
9:55 AM,34.0,27.1,76,30.37,10.0,Calm,Calm,-,N/A,,Clear,0,2013-01-07 14:55:00
10:15 AM,36.0,27.1,70,30.37,10.0,Calm,Calm,-,N/A,,Clear,0,2013-01-07 15:15:00
10:35 AM,37.0,27.1,67,30.38,10.0,Calm,Calm,-,N/A,,Clear,0,2013-01-07 15:35:00
10:55 AM,39.2,25.3,58,30.37,10.0,Calm,Calm,-,N/A,,Clear,0,2013-01-07 15:55:00
11:15 AM,40.5,24.6,53,30.37,10.0,Calm,Calm,-,N/A,,Clear,0,2013-01-07 16:15:00
11:35 AM,42.3,25.0,50,30.35,10.0,East,3.5,-,N/A,,Clear,80,2013-01-07 16:35:00
11:55 AM,44.6,25.0,46,30.34,10.0,Calm,Calm,-,N/A,,Clear,0,2013-01-07 16:55:00
12:15 PM,46.0,24.8,43,30.33,10.0,ENE,3.5,-,N/A,,Clear,60,2013-01-07 17:15:00
12:35 PM,47.5,22.1,37,30.31,10.0,ENE,3.5,-,N/A,,Clear,60,2013-01-07 17:35:00
12:55 PM,49.3,21.4,33,30.30,10.0,Calm,Calm,-,N/A,,Clear,0,2013-01-07 17:55:00
1:15 PM,50.0,21.2,32,30.29,10.0,Calm,Calm,-,N/A,,Clear,0,2013-01-07 18:15:00
1:35 PM,50.7,21.4,32,30.28,10.0,NNE,3.5,-,N/A,,Clear,20,2013-01-07 18:35:00
2:15 PM,53.8,20.3,27,30.27,10.0,Calm,Calm,-,N/A,,Clear,0,2013-01-07 19:15:00
2:35 PM,54.0,20.7,27,30.27,10.0,Calm,Calm,-,N/A,,Clear,0,2013-01-07 19:35:00
2:55 PM,55.0,16.0,22,30.27,10.0,SW,5.8,-,N/A,,Clear,220,2013-01-07 19:55:00
3:15 PM,55.4,14.9,20,30.28,10.0,South,5.8,-,N/A,,Clear,190,2013-01-07 20:15:00
3:35 PM,54.7,14.4,20,30.28,10.0,SSW,6.9,-,N/A,,Clear,200,2013-01-07 20:35:00
3:55 PM,54.5,14.9,21,30.28,10.0,South,4.6,-,N/A,,Clear,170,2013-01-07 20:55:00
4:15 PM,53.8,15.3,22,30.28,10.0,South,6.9,-,N/A,,Clear,180,2013-01-07 21:15:00
4:35 PM,52.9,15.6,23,30.29,10.0,SSE,4.6,-,N/A,,Clear,150,2013-01-07 21:35:00
4:55 PM,50.9,16.3,25,30.30,10.0,SSW,3.5,-,N/A,,Clear,200,2013-01-07 21:55:00
5:15 PM,48.7,17.6,29,30.30,10.0,Calm,Calm,-,N/A,,Clear,0,2013-01-07 22:15:00
5:35 PM,46.6,18.9,33,30.30,10.0,Calm,Calm,-,N/A,,Clear,0,2013-01-07 22:35:00
6:15 PM,39.4,22.5,51,30.31,10.0,Calm,Calm,-,N/A,,Clear,0,2013-01-07 23:15:00
6:35 PM,35.4,23.5,62,30.32,10.0,Calm,Calm,-,N/A,,Clear,0,2013-01-07 23:35:00
6:55 PM,33.3,24.6,71,30.33,10.0,Calm,Calm,-,N/A,,Clear,0,2013-01-07 23:55:00
7:15 PM,31.8,23.4,71,30.34,10.0,Calm,Calm,-,N/A,,Clear,0,2013-01-08 00:15:00
7:35 PM,31.3,23.7,74,30.34,10.0,Calm,Calm,-,N/A,,Clear,0,2013-01-08 00:35:00
7:55 PM,28.6,22.6,78,30.33,10.0,Calm,Calm,-,N/A,,Clear,0,2013-01-08 00:55:00
8:15 PM,28.2,23.0,81,30.33,10.0,Calm,Calm,-,N/A,,Clear,0,2013-01-08 01:15:00
8:35 PM,27.1,22.1,81,30.34,10.0,Calm,Calm,-,N/A,,Clear,0,2013-01-08 01:35:00
8:55 PM,26.4,21.6,82,30.35,10.0,Calm,Calm,-,N/A,,Clear,0,2013-01-08 01:55:00
9:15 PM,25.5,20.8,82,30.35,10.0,Calm,Calm,-,N/A,,Clear,0,2013-01-08 02:15:00
9:35 PM,24.8,21.0,86,30.35,10.0,Calm,Calm,-,N/A,,Clear,0,2013-01-08 02:35:00
9:55 PM,23.9,19.9,85,30.35,10.0,Calm,Calm,-,N/A,,Clear,0,2013-01-08 02:55:00
10:35 PM,23.0,19.4,86,30.36,10.0,Calm,Calm,-,N/A,,Clear,0,2013-01-08 03:35:00
10:55 PM,22.6,19.4,87,30.37,10.0,Calm,Calm,-,N/A,,Clear,0,2013-01-08 03:55:00
11:15 PM,22.6,19.4,87,30.36,10.0,Calm,Calm,-,N/A,,Clear,0,2013-01-08 04:15:00
11:35 PM,21.9,19.0,89,30.36,10.0,Calm,Calm,-,N/A,,Clear,0,2013-01-08 04:35:00
11:55 PM,22.1,18.5,86,30.36,10.0,Calm,Calm,-,N/A,,Clear,0,2013-01-08 04:55:00